Flag for Sweden Weather past 2 weeks in Borås, Sweden

Now
52 °F

Passing clouds.


Feels Like: 48 °F
Forecast: 46 / 62 °F
Wind: 10 mph from Southeast

Location: Gothenburg / Landvetter

Current Time: Oct 1, 2014 at 8:32:12 PM

Latest Report: Oct 1, 2014 at 7:50 PM


Visibility: N/A

Pressure: 30.30 "Hg

Humidity: 88%

Dew point: 48 °F

Location of BoråsLocation

Historic Weather in Borås — Graph

°F

Borås temperature yesterday

Maximum temperature yesterday: 59 °F (at 2:20 PM)
Minimum temperature yesterday: 43 °F (at 5:20 AM)
Average temperature yesterday: 50 °F

Past Weeks' High & Low Weather Summary

 TemperatureHumidityPressure
High66 °F (Sep 18, 3:20 PM)100% (Sep 17, 6:50 AM)30.36 "Hg (Sep 17, 6:50 AM)
Low34 °F (Sep 23, 5:50 AM)44% (Sep 23, 3:20 PM)29.53 "Hg (Sep 25, 4:50 AM)
Average52 °F82%30.00 "Hg
* Reported Sep 16 7:20 PM — Oct 1 7:20 PM, Borås, Weather by CustomWeather, © 2014

Note: Actual official high and low records may vary slightly from our data, if they occured in-between our weather recording intervals... More about our weather records

Advertising

Borås weather history for previous 24 hours

 ConditionsComfort  
Time TempWeatherWind HumidityBarometerVisibility
7:20 PM
Oct 1
52 °FPartly sunny.10 mph88%30.30 "HgN/A
6:50 PM52 °FOvercast.9 mph88%30.30 "HgN/A
6:20 PM52 °FPartly sunny.8 mph88%30.30 "HgN/A
5:50 PM52 °FPartly sunny.9 mph88%30.30 "HgN/A
5:20 PM52 °FPartly sunny.9 mph88%30.30 "HgN/A
4:50 PM52 °FOvercast.9 mph88%30.30 "HgN/A
4:20 PM54 °FMore clouds than sun.10 mph82%30.30 "HgN/A
3:50 PM54 °FBroken clouds.12 mph77%30.30 "HgN/A
3:20 PM55 °FPartly sunny.9 mph72%30.30 "HgN/A
2:50 PM55 °FPartly sunny.9 mph72%30.30 "HgN/A
2:20 PM55 °FPartly sunny.10 mph72%30.30 "HgN/A
1:50 PM54 °FSunny.9 mph77%30.33 "Hg10 mi
1:20 PM54 °FPassing clouds.10 mph72%30.33 "HgN/A
12:50 PM54 °FSunny.13 mph77%30.33 "Hg10 mi
12:20 PM54 °FSunny.14 mph77%30.33 "Hg10 mi
11:50 AM54 °FSunny.10 mph77%30.33 "Hg10 mi
11:20 AM52 °FPassing clouds.12 mph77%30.33 "HgN/A
10:50 AM52 °FPassing clouds.13 mph77%30.33 "HgN/A
10:20 AM50 °FPassing clouds.12 mph82%30.33 "HgN/A
9:50 AM48 °FScattered clouds.10 mph87%30.33 "HgN/A
9:20 AM46 °FPartly sunny.10 mph93%30.33 "HgN/A
8:50 AM45 °FLow clouds.9 mph100%30.33 "HgN/A
8:20 AM45 °FLow clouds.10 mph93%30.33 "HgN/A
7:50 AM43 °FLow clouds.9 mph100%30.33 "HgN/A
7:20 AM43 °FFog.9 mph100%30.33 "Hg4 mi
6:50 AM43 °FFog.10 mph93%30.33 "Hg2 mi
6:20 AM41 °FClear.10 mph100%30.33 "Hg10 mi
5:50 AM41 °FClear.9 mph93%30.33 "Hg10 mi
5:20 AM41 °FClear.9 mph93%30.33 "Hg10 mi
4:50 AM41 °FClear.9 mph93%30.33 "Hg10 mi
4:20 AM43 °FClear.10 mph87%30.33 "Hg10 mi
3:50 AM43 °FClear.10 mph81%30.33 "Hg10 mi
3:20 AM43 °FClear.10 mph81%30.33 "Hg10 mi
2:50 AM43 °FClear.10 mph81%30.36 "Hg10 mi
2:20 AM45 °FClear.9 mph76%30.36 "Hg10 mi
1:50 AM43 °FClear.8 mph87%30.36 "Hg10 mi
1:20 AM45 °FClear.7 mph81%30.36 "Hg10 mi
12:50 AM45 °FClear.8 mph81%30.36 "Hg10 mi
12:20 AM45 °FClear.8 mph81%30.36 "Hg10 mi
11:50 PM
Sep 30
45 °FClear.7 mph81%30.36 "Hg10 mi
11:20 PM45 °FClear.7 mph81%30.33 "Hg10 mi
10:50 PM46 °FClear.6 mph76%30.33 "Hg10 mi
10:20 PM46 °FClear.7 mph76%30.33 "Hg10 mi
9:50 PM48 °FClear.8 mph71%30.33 "Hg10 mi
9:20 PM50 °FClear.7 mph67%30.33 "Hg10 mi
8:50 PM50 °FClear.7 mph67%30.33 "Hg10 mi
8:20 PM50 °FClear.7 mph67%30.33 "Hg10 mi
Weather by CustomWeather, © 2014

See weather overviewHow to use our weather pages